641  
ASUS42 KRAH 220410  
RWRRAH  
NORTH CAROLINA WEATHER ROUNDUP  
NATIONAL WEATHER SERVICE RALEIGH NC  
1200 AM EDT SUN OCT 22 2017  
 
NOTE: "FAIR" INDICATES FEW OR NO CLOUDS BELOW 12,000 FEET WITH NO  
SIGNIFICANT WEATHER AND/OR S TO VISIBILITY
.  
 
NCZ001-053-055-056-065-067-220500-  
WESTERN NORTH CAROLINA  
 
CITY SKY/WX TMP DP RH WIND PRES REMARKS
 
ASHEVILLE CLEAR 52 50 93 CALM 30.37S  
JEFFERSON CLEAR 55 47 74 CALM 30.39S  
HICKORY PTCLDY 56 55 97 CALM 30.33F  
RUTHERFORDTON CLEAR 58 54 87 CALM 30.34S  
MOUNT AIRY PTCLDY 56 52 84 CALM 30.37S  
BOONE CLEAR 45 45 100 CALM 30.40F  

 
 
NCZ021-022-025-041-071-084-088-220500-  
CENTRAL NORTH CAROLINA  
 
CITY SKY/WX TMP DP RH WIND PRES REMARKS
 
CHARLOTTE PTCLDY 59 52 77 E3 30.33S  
GREENSBORO MOCLDY 59 54 83 CALM 30.34S  
WINSTON-SALEM PTCLDY 61 52 72 CALM 30.35S  
RALEIGH-DURHAM MOCLDY 60 54 80 SE6 30.34F  
FORT BRAGG CLOUDY 56 54 93 CALM 30.32S  
FAYETTEVILLE CLOUDY 60 57 89 CALM 30.32F  
BURLINGTON PTCLDY 56 53 90 CALM 30.34S  
LAURINBURG MOCLDY 58 54 86 CALM 30.33S  

 
 
NCZ011-015-027-028-043-044-047-080-103-220500-  
NORTHEASTERN NORTH CAROLINA  
 
CITY SKY/WX TMP DP RH WIND PRES REMARKS
 
ROCKY MT-WILSO CLOUDY 59 57 93 CALM 30.34F  
GREENVILLE CLOUDY 59 59 100 CALM 30.35S  
WASHINGTON MOCLDY 60 58 93 CALM 30.35F  
ELIZABETH CITY PTCLDY 60 58 92 CALM 30.35F  
MANTEO CLEAR N/A N/A N/A CALM 30.36S  
CAPE HATTERAS CLEAR 67 64 90 NE6 30.34S  

 
 
NCZ078-087-090-091-093-098-101-220500-  
SOUTHEASTERN NORTH CAROLINA  
 
CITY SKY/WX TMP DP RH WIND PRES REMARKS
 
LUMBERTON CLOUDY 55 55 100 CALM 30.32S  
GOLDSBORO CLOUDY 57 54 90 E5 30.32F FOG  
KINSTON CLOUDY 57 55 94 CALM 30.35S  
KENANSVILLE PTCLDY 54 52 94 CALM 30.34F  
NEW BERN MOCLDY 59 59 100 CALM 30.35F  
CHERRY POINT N/A 59 58 96 CALM 30.35F  
BEAUFORT PTCLDY 61 59 93 NE5 30.34S  
JACKSONVILLE PTCLDY 62 59 90 CALM 30.33F  
WILMINGTON CLEAR 60 59 96 CALM 30.32F  

 
 
 
 
CLICK HERE TO GO TO PREVIOUS BULLETINS.

The Nexlab NC Page Main Text Page